Weather History for KPPQ - January, 2004

Change the Weather History Date:

Friday, January 2, 2004

  Actual Average (KUIN) Record (KUIN)
Temperature  
Mean Temperature 55 °F 27 °F  
Max Temperature 68 °F 34 °F 68 °F (2004)
Min Temperature 42 °F 19 °F -11 °F (1979)
Degree Days  
Heating Degree Days 10 38  
Month to date heating degree days 76  
Since 1 July heating degree days 2267  
Cooling Degree Days 0 0  
Month to date cooling degree days 0  
Year to date cooling degree days 0  
Growing Degree Days 5 (Base 50)    
Moisture  
Dew Point 53 °F    
Average Humidity 88    
Maximum Humidity 100    
Minimum Humidity 60    
Precipitation  
Precipitation 0.00 in 0.05 in 1.32 in (1951)
Month to date precipitation 0.11  
Year to date precipitation 0.11  
Sea Level Pressure  
Sea Level Pressure 29.81 in    
Wind  
Wind Speed 8 mph (South)    
Max Wind Speed 23 mph    
Max Gust Speed 33 mph    
Visibility 5 miles    
Events Fog    
T = Trace of Precipitation, MM = Missing Value Source: NWS Daily Summary

Daily Weather History Graph

Daily Weather History Graph

Search for Another Location

Airport or City:

Trip Planner

Search our weather history database for the weather conditions in past years. The results will help you decide how hot, cold, wet, or windy it might be!

Date:

Astronomy

Jan. 02, 2004 Rise Set
Actual Time 7:24 AM CST 4:50 PM CST
Civil Twilight 6:53 AM CST 5:20 PM CST
Nautical Twilight 6:20 AM CST 5:54 PM CST
Astronomical Twilight 5:47 AM CST 6:26 PM CST
Moon 1:22 PM CST (1/2) 2:56 AM CST (1/2)
Length of Visible Light 10h 26m
Length of Day
9h 26m
Waxing Gibbous, 80% of the Moon is Illuminated
Jan 2
Waxing Gibbous
Jan 7
Full
Jan 14
Last Quarter
Jan 21
New
Jan 29
First Quarter

Hourly Weather History & Observations

Time (CST) Temp. Windchill Dew Point Humidity Pressure Visibility Wind Dir Wind Speed Gust Speed Precip Events Conditions
12:05 AM 51.8 °F - 51.8 °F 100% 29.96 in 5.0 mi WSW 4.6 mph - N/A   Clear
12:25 AM 50.0 °F - 50.0 °F 100% 29.95 in 4.0 mi WSW 4.6 mph - N/A   Clear
12:45 AM 46.4 °F 44.3 °F 46.4 °F 100% 29.96 in 1.2 mi WSW 4.6 mph - N/A   Mist
1:06 AM 46.4 °F 44.3 °F 46.4 °F 100% 29.96 in 0.2 mi SSW 4.6 mph - N/A Fog Fog
1:25 AM 46.4 °F 44.3 °F 46.4 °F 100% 29.96 in 0.2 mi SSW 4.6 mph - N/A Fog Fog
1:45 AM 42.8 °F 40.1 °F 42.8 °F 100% 29.95 in 0.2 mi SSW 4.6 mph - N/A Fog Fog
2:05 AM 48.2 °F - 48.2 °F 100% 29.96 in 0.2 mi SSW 5.8 mph - N/A Fog Fog
2:25 AM 44.6 °F 41.4 °F 44.6 °F 100% 29.96 in 0.2 mi South 5.8 mph - N/A Fog Fog
2:45 AM 46.4 °F 43.5 °F 46.4 °F 100% 29.95 in 0.2 mi SSW 5.8 mph - N/A Fog Fog
3:05 AM 46.4 °F 43.5 °F 46.4 °F 100% 29.94 in 0.2 mi South 5.8 mph - N/A Fog Fog
3:25 AM 48.2 °F - 48.2 °F 100% 29.94 in 0.2 mi South 5.8 mph - N/A Fog Fog
3:45 AM 51.8 °F - 51.8 °F 100% 29.93 in 0.5 mi South 6.9 mph - N/A Fog Fog
4:05 AM 51.8 °F - 51.8 °F 100% 29.94 in 0.2 mi SSW 5.8 mph - N/A Fog Fog
4:25 AM 51.8 °F - 51.8 °F 100% 29.93 in 0.2 mi South 4.6 mph - N/A Fog Fog
4:45 AM 51.8 °F - 51.8 °F 100% 29.92 in 0.2 mi South 3.5 mph - N/A Fog Fog
5:05 AM 50.0 °F - 50.0 °F 100% 29.91 in 0.2 mi SSE 3.5 mph - N/A Fog Fog
5:25 AM 50.0 °F - 50.0 °F 100% 29.91 in 0.2 mi SSE 3.5 mph - N/A Fog Fog
5:45 AM 51.8 °F - 51.8 °F 100% 29.90 in 0.2 mi SE 4.6 mph - N/A Fog Fog
6:05 AM 51.8 °F - 51.8 °F 100% 29.90 in 0.2 mi SSE 4.6 mph - N/A Fog Fog
6:25 AM 51.8 °F - 51.8 °F 100% 29.89 in 0.2 mi SE 5.8 mph - N/A Fog Fog
6:45 AM 51.8 °F - 51.8 °F 100% 29.88 in 0.2 mi SSE 5.8 mph - N/A Fog Fog
7:05 AM 51.8 °F - 51.8 °F 100% 29.87 in 0.2 mi SE 5.8 mph - N/A Fog Fog
7:25 AM 51.8 °F - 51.8 °F 100% 29.86 in 0.2 mi SE 6.9 mph - N/A Fog Fog
7:45 AM 51.8 °F - 51.8 °F 100% 29.86 in 0.2 mi SE 9.2 mph - N/A Fog Fog
8:05 AM 51.8 °F - 51.8 °F 100% 29.86 in 0.5 mi SE 8.1 mph - N/A Fog Fog
8:25 AM 51.8 °F - 51.8 °F 100% 29.85 in 0.5 mi SE 8.1 mph - N/A Fog Fog
8:45 AM 51.8 °F - 51.8 °F 100% 29.85 in 0.5 mi SE 8.1 mph - N/A Fog Fog
9:05 AM 51.8 °F - 51.8 °F 100% 29.85 in 1.2 mi SSE 6.9 mph - N/A   Overcast
9:25 AM 53.6 °F - 53.6 °F 100% 29.84 in 3.0 mi South 12.7 mph 16.1 mph N/A   Overcast
9:45 AM 55.4 °F - 55.4 °F 100% 29.83 in 5.0 mi South 15.0 mph - N/A   Overcast
10:05 AM 55.4 °F - 55.4 °F 100% 29.82 in 5.0 mi South 16.1 mph 21.9 mph N/A   Overcast
10:25 AM 57.2 °F - 57.2 °F 100% 29.81 in 7.0 mi South 18.4 mph 24.2 mph N/A   Mostly Cloudy
10:45 AM 59.0 °F - 57.2 °F 94% 29.79 in 7.0 mi South 16.1 mph 21.9 mph N/A   Scattered Clouds
11:05 AM 60.8 °F - 59.0 °F 94% 29.76 in 10.0 mi South 17.3 mph 21.9 mph N/A   Scattered Clouds
11:25 AM 60.8 °F - 59.0 °F 94% 29.74 in 10.0 mi South 15.0 mph 24.2 mph N/A   Clear
11:45 AM 64.4 °F - 60.8 °F 88% 29.71 in 10.0 mi South 21.9 mph 27.6 mph N/A   Clear
12:05 PM 66.2 °F - 60.8 °F 83% 29.69 in 10.0 mi South 23.0 mph 28.8 mph N/A   Clear
12:25 PM 66.2 °F - 59.0 °F 78% 29.69 in 10.0 mi South 17.3 mph 26.5 mph N/A   Clear
12:45 PM 66.2 °F - 59.0 °F 78% 29.67 in 10.0 mi South 17.3 mph 24.2 mph N/A   Scattered Clouds
1:05 PM 66.2 °F - 55.4 °F 68% 29.66 in 10.0 mi SSW 20.7 mph 27.6 mph N/A   Scattered Clouds
1:25 PM 66.2 °F - 55.4 °F 68% 29.65 in 10.0 mi SSW 19.6 mph 27.6 mph N/A   Clear
1:45 PM 66.2 °F - 55.4 °F 68% 29.65 in 10.0 mi SSW 16.1 mph 24.2 mph N/A   Clear
2:05 PM 66.2 °F - 53.6 °F 64% 29.64 in 10.0 mi South 21.9 mph 33.4 mph N/A   Scattered Clouds
2:47 PM 66.2 °F - 53.6 °F 64% 29.64 in 10.0 mi SW 20.7 mph 32.2 mph N/A   Scattered Clouds
3:05 PM 68.0 °F - 53.6 °F 60% 29.64 in 10.0 mi SSW 21.9 mph 28.8 mph N/A   Scattered Clouds
3:06 PM 66.2 °F - 53.6 °F 64% 29.64 in 10.0 mi SSW 20.7 mph 28.8 mph N/A   Scattered Clouds
3:25 PM 66.2 °F - 53.6 °F 64% 29.64 in 10.0 mi SSW 16.1 mph 26.5 mph N/A   Scattered Clouds
3:45 PM 66.2 °F - 53.6 °F 64% 29.65 in 10.0 mi SSW 13.8 mph 20.7 mph N/A   Scattered Clouds
4:05 PM 66.2 °F - 53.6 °F 64% 29.65 in 10.0 mi SSW 12.7 mph - N/A   Scattered Clouds
4:25 PM 66.2 °F - 55.4 °F 68% 29.65 in 10.0 mi SSW 13.8 mph 18.4 mph N/A   Clear
4:45 PM 66.2 °F - 55.4 °F 68% 29.65 in 10.0 mi SSW 13.8 mph 19.6 mph N/A   Clear
5:05 PM 66.2 °F - 55.4 °F 68% 29.65 in 10.0 mi SSW 8.1 mph - N/A   Clear
5:25 PM 66.2 °F - 55.4 °F 68% 29.66 in 10.0 mi SSW 10.4 mph 17.3 mph N/A   Clear
5:45 PM 64.4 °F - 53.6 °F 68% 29.67 in 10.0 mi SW 10.4 mph - N/A   Clear
6:05 PM 64.4 °F - 53.6 °F 68% 29.67 in 10.0 mi SW 10.4 mph - N/A   Clear
6:25 PM 64.4 °F - 53.6 °F 68% 29.69 in 10.0 mi WSW 10.4 mph - N/A   Scattered Clouds
6:45 PM 60.8 °F - 50.0 °F 68% 29.70 in 10.0 mi WSW 10.4 mph - N/A   Scattered Clouds
7:05 PM 60.8 °F - 50.0 °F 68% 29.70 in 10.0 mi WSW 6.9 mph - N/A   Clear
7:25 PM 59.0 °F - 50.0 °F 72% 29.72 in 10.0 mi WSW 5.8 mph - N/A   Clear
7:45 PM 59.0 °F - 50.0 °F 72% 29.72 in 10.0 mi WSW 6.9 mph - N/A   Clear
8:05 PM 59.0 °F - 50.0 °F 72% 29.73 in 10.0 mi WSW 10.4 mph - N/A   Clear
8:25 PM 59.0 °F - 50.0 °F 72% 29.74 in 10.0 mi WSW 9.2 mph - N/A   Clear
8:45 PM 59.0 °F - 50.0 °F 72% 29.75 in 10.0 mi WSW 11.5 mph - N/A   Clear
9:05 PM 59.0 °F - 50.0 °F 72% 29.76 in 10.0 mi WSW 11.5 mph - N/A   Clear
9:25 PM 59.0 °F - 48.2 °F 67% 29.77 in 10.0 mi WSW 12.7 mph - N/A   Clear
9:45 PM 59.0 °F - 46.4 °F 63% 29.78 in 10.0 mi WSW 10.4 mph - N/A   Clear
10:05 PM 57.2 °F - 46.4 °F 67% 29.79 in 10.0 mi West 9.2 mph - N/A   Clear
10:25 PM 55.4 °F - 46.4 °F 72% 29.80 in 10.0 mi West 8.1 mph - N/A   Clear
10:45 PM 55.4 °F - 44.6 °F 67% 29.80 in 10.0 mi West 8.1 mph - N/A   Clear
11:05 PM 53.6 °F - 44.6 °F 72% 29.81 in 10.0 mi WNW 5.8 mph - N/A   Clear
11:25 PM 51.8 °F - 42.8 °F 71% 29.82 in 10.0 mi NW 5.8 mph - N/A   Clear
11:45 PM 51.8 °F - 42.8 °F 71% 29.82 in 10.0 mi WNW 4.6 mph - N/A   Clear